This is the latest recevied weather packets stored in our database for station/object KO4DYK. If no packets are shown the sender has not sent any weather packets the latest 10 day(s).
| Time | Temp. | Humidity | Pressure | Rain* | Wind** | Luminosity | Snow |
|---|---|---|---|---|---|---|---|
| 1777642844 | 13.33° C | 92% | 1021.1 hPa | 0 mm | - | 301 W/m² | - |
| 1777642542 | 12.78° C | 93% | 1021.1 hPa | 0 mm | - | 251 W/m² | - |
| 1777642238 | 12.78° C | 95% | 1021.3 hPa | 0 mm | - | 160 W/m² | - |
| 1777641936 | 12.22° C | 96% | 1021.1 hPa | 0 mm | - | 149 W/m² | - |
| 1777641631 | 11.67° C | 99% | 1021.2 hPa | 0 mm | - | 134 W/m² | - |
| 1777641326 | 11.67° C | 99% | 1021.2 hPa | 0 mm | - | 113 W/m² | - |
| 1777641021 | 11.67° C | 99% | 1021.2 hPa | 0 mm | - | 93 W/m² | - |
| 1777640718 | 11.11° C | 99% | 1021.3 hPa | 0 mm | - | 110 W/m² | - |
| 1777640415 | 11.11° C | 99% | 1021.2 hPa | 0 mm | - | 96 W/m² | - |
| 1777640112 | 11.11° C | 99% | 1021.1 hPa | 0 mm | - | 81 W/m² | - |
| 1777639809 | 10.56° C | 99% | 1020.9 hPa | 0 mm | - | 88 W/m² | - |
| 1777639506 | 10° C | 99% | 1021 hPa | 0 mm | - | 95 W/m² | - |
| 1777639202 | 9.44° C | 99% | 1020.9 hPa | 0 mm | - | 84 W/m² | - |
| 1777638899 | 9.44° C | 99% | 1021.1 hPa | 0 mm | - | 69 W/m² | - |
| 1777638594 | 9.44° C | 99% | 1020.8 hPa | 0 mm | - | 58 W/m² | - |
| 1777638291 | 8.89° C | 99% | 1020.8 hPa | 0 mm | - | 72 W/m² | - |
| 1777637987 | 8.89° C | 99% | 1020.8 hPa | 0 mm | - | 55 W/m² | - |
| 1777637684 | 8.33° C | 99% | 1020.8 hPa | 0 mm | - | 52 W/m² | - |
| 1777637381 | 8.33° C | 99% | 1020.6 hPa | 0 mm | - | 49 W/m² | - |
| 1777637077 | 8.33° C | 99% | 1020.6 hPa | 0 mm | - | 45 W/m² | - |
| 1777636773 | 8.33° C | 99% | 1020.6 hPa | 0 mm | - | 35 W/m² | - |
| 1777636470 | 7.78° C | 99% | 1020.6 hPa | 0 mm | - | 30 W/m² | - |
| 1777636166 | 7.78° C | 99% | 1020.8 hPa | 0 mm | - | 28 W/m² | - |
| 1777635861 | 7.78° C | 99% | 1020.5 hPa | 0 mm | - | 27 W/m² | - |
| 1777635558 | 7.78° C | 99% | 1020.6 hPa | 0 mm | - | 20 W/m² | - |
* Rain latest hour (hover to see other rain measurements)
** Current wind speed in m/s (hover to see current wind gust speed)